TimeCDT,TemperatureF,Dew PointF,Humidity,Sea Level PressureIn,VisibilityMPH,Wind Direction,Wind SpeedMPH,Gust SpeedMPH,PrecipitationIn,Events,Conditions,WindDirDegrees,DateUTC
12:55 AM,51.8,44.6,76,29.93,10.0,South,19.6,-,N/A,,Overcast,190,2012-10-13 05:55:00
1:35 AM,51.8,44.8,77,29.90,10.0,South,12.7,-,N/A,,Overcast,180,2012-10-13 06:35:00
1:55 AM,51.8,44.8,77,29.88,10.0,South,12.7,-,N/A,Thunderstorm,Overcast,180,2012-10-13 06:55:00
2:15 AM,51.8,45.0,77,29.86,10.0,South,12.7,-,N/A,,Overcast,180,2012-10-13 07:15:00
2:35 AM,51.8,44.8,77,29.86,10.0,South,9.2,-,N/A,,Overcast,170,2012-10-13 07:35:00
2:55 AM,51.8,46.4,82,29.85,10.0,South,10.4,-,N/A,,Overcast,180,2012-10-13 07:55:00
3:15 AM,51.8,47.1,84,29.85,10.0,South,9.2,-,N/A,,Overcast,180,2012-10-13 08:15:00
3:35 AM,52.3,48.6,87,29.84,10.0,South,9.2,-,N/A,Thunderstorm,Overcast,190,2012-10-13 08:35:00
3:55 AM,52.2,49.1,89,29.84,7.0,South,6.9,-,N/A,Rain-Thunderstorm,Light Thunderstorms and Rain,180,2012-10-13 08:55:00
4:15 AM,52.3,51.1,95,29.83,7.0,Calm,Calm,-,0.02,Rain-Thunderstorm,Light Thunderstorms and Rain,0,2012-10-13 09:15:00
4:35 AM,52.7,52.7,100,29.81,5.0,South,12.7,-,0.02,Rain-Thunderstorm,Rain,170,2012-10-13 09:35:00
4:55 AM,52.5,52.5,100,29.79,5.0,South,8.1,-,0.06,Rain,Rain,170,2012-10-13 09:55:00
5:15 AM,54.9,54.9,100,29.77,7.0,South,15.0,-,0.03,Rain,Rain,190,2012-10-13 10:15:00
5:35 AM,57.4,57.4,100,29.78,10.0,South,23.0,26.5,0.05,Rain,Light Rain,190,2012-10-13 10:35:00
5:55 AM,57.9,57.9,100,29.74,10.0,South,10.4,-,0.05,,Overcast,170,2012-10-13 10:55:00
6:15 AM,58.1,58.1,100,29.73,10.0,South,17.3,-,N/A,,Overcast,180,2012-10-13 11:15:00
6:35 AM,57.6,57.4,99,29.73,10.0,South,15.0,20.7,N/A,,Mostly Cloudy,190,2012-10-13 11:35:00
6:55 AM,56.3,56.3,100,29.76,10.0,SSW,12.7,-,N/A,,Scattered Clouds,210,2012-10-13 11:55:00
7:15 AM,56.3,56.3,100,29.76,10.0,SSW,11.5,-,N/A,,Overcast,210,2012-10-13 12:15:00
7:35 AM,55.4,55.4,100,29.75,10.0,SSW,6.9,-,N/A,,Overcast,210,2012-10-13 12:35:00
7:55 AM,55.4,55.4,100,29.75,10.0,SSW,9.2,-,N/A,,Overcast,200,2012-10-13 12:55:00
8:15 AM,55.4,55.4,100,29.75,10.0,South,9.2,-,N/A,Rain,Light Rain,180,2012-10-13 13:15:00
8:55 AM,55.2,55.2,100,29.74,-9999.0,South,9.2,-,N/A,,Unknown,180,2012-10-13 13:55:00
9:35 AM,55.4,55.4,100,29.73,7.0,South,10.4,-,N/A,,Overcast,190,2012-10-13 14:35:00
9:55 AM,56.8,56.8,100,29.73,10.0,SSW,16.1,-,N/A,,Overcast,200,2012-10-13 14:55:00
10:35 AM,57.6,57.6,100,29.71,10.0,SSW,11.5,-,N/A,,Overcast,200,2012-10-13 15:35:00
10:55 AM,58.8,58.3,98,29.71,10.0,SW,13.8,-,N/A,,Overcast,220,2012-10-13 15:55:00
11:15 AM,59.4,58.1,96,29.70,10.0,SSW,17.3,-,N/A,,Overcast,210,2012-10-13 16:15:00
11:35 AM,60.1,58.6,95,29.70,10.0,SW,12.7,-,N/A,,Overcast,220,2012-10-13 16:35:00
11:55 AM,61.0,58.6,92,29.70,10.0,SSW,13.8,-,N/A,,Overcast,210,2012-10-13 16:55:00
12:15 PM,61.9,58.5,89,29.70,10.0,SW,12.7,-,N/A,,Overcast,230,2012-10-13 17:15:00
12:35 PM,62.8,58.5,86,29.69,10.0,SSW,13.8,-,N/A,,Mostly Cloudy,210,2012-10-13 17:35:00
12:55 PM,63.9,58.8,84,29.69,10.0,SSW,12.7,-,N/A,,Mostly Cloudy,210,2012-10-13 17:55:00
1:15 PM,64.8,59.0,82,29.69,10.0,SSW,13.8,18.4,N/A,,Mostly Cloudy,210,2012-10-13 18:15:00
1:35 PM,64.4,58.5,81,29.67,10.0,SSW,15.0,-,N/A,,Mostly Cloudy,210,2012-10-13 18:35:00
1:55 PM,64.8,58.5,80,29.68,10.0,SW,13.8,19.6,N/A,,Mostly Cloudy,230,2012-10-13 18:55:00
2:15 PM,66.0,58.6,77,29.67,10.0,WSW,12.7,-,N/A,,Mostly Cloudy,240,2012-10-13 19:15:00
2:35 PM,67.1,59.0,75,29.67,10.0,SW,13.8,-,N/A,,Scattered Clouds,220,2012-10-13 19:35:00
2:55 PM,69.3,59.9,72,29.65,10.0,SW,13.8,-,N/A,,Clear,230,2012-10-13 19:55:00
3:15 PM,70.3,60.1,70,29.65,10.0,SSW,12.7,-,N/A,,Clear,210,2012-10-13 20:15:00
3:35 PM,71.1,60.1,68,29.66,10.0,SW,12.7,16.1,N/A,,Clear,230,2012-10-13 20:35:00
3:55 PM,71.2,59.9,67,29.65,10.0,WSW,8.1,-,N/A,,Clear,240,2012-10-13 20:55:00
4:15 PM,71.8,60.1,67,29.65,10.0,SW,11.5,-,N/A,,Clear,220,2012-10-13 21:15:00
4:35 PM,72.3,59.9,65,29.65,10.0,SW,9.2,-,N/A,,Clear,230,2012-10-13 21:35:00
4:55 PM,72.3,60.1,65,29.64,10.0,SW,10.4,-,N/A,,Clear,220,2012-10-13 21:55:00
5:15 PM,72.5,59.9,64,29.64,10.0,SW,12.7,-,N/A,,Clear,220,2012-10-13 22:15:00
5:35 PM,72.1,59.9,65,29.64,10.0,WSW,8.1,-,N/A,,Clear,240,2012-10-13 22:35:00
5:55 PM,72.1,59.4,64,29.64,10.0,WSW,8.1,-,N/A,,Clear,240,2012-10-13 22:55:00
6:15 PM,71.2,59.2,66,29.64,10.0,West,5.8,-,N/A,,Clear,270,2012-10-13 23:15:00
6:35 PM,68.2,58.1,70,29.65,10.0,West,5.8,-,N/A,,Clear,280,2012-10-13 23:35:00
7:35 PM,62.2,55.6,79,29.67,10.0,NW,6.9,-,N/A,,Clear,310,2012-10-14 00:35:00
7:55 PM,62.8,55.4,77,29.66,10.0,NNW,9.2,-,N/A,,Clear,330,2012-10-14 00:55:00
8:35 PM,61.7,55.0,79,29.66,10.0,NW,10.4,-,N/A,,Clear,320,2012-10-14 01:35:00
9:15 PM,59.7,52.7,78,29.66,10.0,NW,6.9,-,N/A,,Clear,320,2012-10-14 02:15:00
9:35 PM,59.9,52.7,77,29.67,10.0,North,5.8,-,N/A,,Clear,350,2012-10-14 02:35:00
9:55 PM,60.4,51.8,73,29.67,10.0,North,9.2,-,N/A,,Clear,350,2012-10-14 02:55:00
10:15 PM,59.0,50.2,73,29.68,10.0,NNW,5.8,-,N/A,,Clear,330,2012-10-14 03:15:00
10:55 PM,57.6,48.2,71,29.66,10.0,NNW,11.5,-,N/A,,Clear,340,2012-10-14 03:55:00
11:35 PM,57.6,48.6,72,29.67,10.0,North,12.7,-,N/A,,Clear,350,2012-10-14 04:35:00
11:55 PM,56.3,48.6,75,29.67,10.0,NNW,15.0,-,N/A,,Clear,340,2012-10-14 04:55:00